Terminal Aerodrome Forecast
Issued by NWS Atlanta, GA

Home | Current Version | Previous Version | Text Only | Print | Product List | Glossary On
Versions: 1 2 3 4 5 6 7 8 9 10 11 12 13 14 15 16 17 18 19 20 21 22 23 24 25 26 27 28 29 30 31 32 33 34 35 36 37 38 39 40 41 42 43 44 45
000
FTUS42 KFFC 201700
TAFATL
TAF
KATL 201729Z 2018/2124 22009KT P6SM FEW040 FEW250
     FM210000 27003KT P6SM SCT100
     FM211400 31008KT P6SM FEW100
     FM211800 31011KT P6SM FEW250=

USA.gov is the U.S. government's official web portal to all federal, state and local government web resources and services.